Retour au catalogue

KUIPER-00570

ActifCommunicationsLEO
NORAD 69271·PAYLOAD·🇺🇸 United States

Lancé May 29, 2026 depuis Vandenberg Space Force Base

Loading…

Prochains Passages (prochaines 24 heures)

TLE

FraisSource: CelesTrak SupGP

Époque: Sep 14, 2026, 21:03 UTC

1 69271C 26118E   26257.87753472  .00005774  00000+0  75597-3 0  2573
2 69271  51.9011   6.6548 0000456  96.2588 144.0115 14.79914550    18

Suivez KUIPER-00570 en temps réel avec AllMySat

Download on the App Store